Location: Cañada de la Miga
(34.7595°N, 106.2317°W)
Time: 10:39:23
(UTC+00:00)

A-11 Canister half - Pass Details

Date: 06 December 2021
Orbit: 1516 x 1684 km, 47.2° (Epoch: 16 January)

Event Time Altitude Azimuth Distance (km) Brightness Sun altitude
Rises 10:13:41 0° 176° (S) 4,673 11.6 -45.4°
Reaches altitude 10° 10:18:19 10° 157° (SSE) 3,719 11.2 -44.5°
Maximum altitude 10:23:28 16° 122° (ESE) 3,294 11.1 -43.4°
Drops below altitude 10° 10:28:40 10° 89° (E) 3,798 11.7 -42.3°
Sets 10:33:25 0° 70° (ENE) 4,822 12.4 -41.4°
